This is the latest recevied weather packets stored in our database for station/object S54A-10. If no packets are shown the sender has not sent any weather packets the latest 10 day(s).
| Time | Temp. | Humidity | Pressure | Rain* | Wind** | Luminosity | Snow |
|---|---|---|---|---|---|---|---|
| 1777475696 | 12.22° C | 66% | 1023.1 hPa | - | - | - | - |
| 1777474796 | 12.22° C | 65% | 1023.2 hPa | - | - | - | - |
| 1777473896 | 12.22° C | 64% | 1023.3 hPa | - | - | - | - |
| 1777472996 | 12.22° C | 65% | 1023.3 hPa | - | - | - | - |
| 1777472095 | 12.22° C | 66% | 1023.3 hPa | - | - | - | - |
| 1777471195 | 12.22° C | 65% | 1023.3 hPa | - | - | - | - |
| 1777470295 | 12.22° C | 65% | 1023.4 hPa | - | - | - | - |
| 1777469395 | 12.22° C | 65% | 1023.4 hPa | - | - | - | - |
| 1777468495 | 11.67° C | 66% | 1023.6 hPa | - | - | - | - |
| 1777467595 | 11.67° C | 66% | 1023.5 hPa | - | - | - | - |
| 1777466695 | 11.67° C | 67% | 1023.6 hPa | - | - | - | - |
| 1777465795 | 11.67° C | 66% | 1023.7 hPa | - | - | - | - |
| 1777464895 | 11.67° C | 65% | 1023.6 hPa | - | - | - | - |
| 1777463995 | 11.67° C | 66% | 1023.4 hPa | - | - | - | - |
| 1777463095 | 12.22° C | 65% | 1023.4 hPa | - | - | - | - |
| 1777462195 | 12.22° C | 64% | 1023.4 hPa | - | - | - | - |
| 1777461295 | 12.22° C | 64% | 1023.4 hPa | - | - | - | - |
| 1777460395 | 12.78° C | 63% | 1023.3 hPa | - | - | - | - |
| 1777459494 | 13.33° C | 62% | 1023.2 hPa | - | - | - | - |
| 1777458594 | 13.33° C | 62% | 1023.2 hPa | - | - | - | - |
| 1777457694 | 13.89° C | 63% | 1023.1 hPa | - | - | - | - |
| 1777456794 | 13.33° C | 62% | 1023.2 hPa | - | - | - | - |
| 1777455894 | 13.89° C | 61% | 1023.2 hPa | - | - | - | - |
| 1777454994 | 13.89° C | 62% | 1023 hPa | - | - | - | - |
| 1777454094 | 13.89° C | 61% | 1022.9 hPa | - | - | - | - |
* Rain since midnight (hover to see other rain measurements)
** Current wind speed in m/s (hover to see current wind gust speed)